When you browse on this site, cookies collect data to enhance your experience and personalize the content and advertising you see.
Visit our Privacy Policy to learn more. By continuing to use the site, you agree to this use of cookies and data.
  • In Romania
  • List of Countries
  • For 7 days
  • Water Temperature
  • Satellite Maps
  • Weather Map
  • Weather Widgets
  • user-avatar
    Login

    Hourly Weather Saint-Omer

    Today, 20 June, Thursday

    Time Temperature Precipitation Wind Pressure Humidity
    00:00 +13°C° 0 mm 4 mps 754 mmHg 94%
    01:00 +13°C° 0 mm 4 mps 754 mmHg 94%
    02:00 +13°C° 0 mm 4 mps 754 mmHg 95%
    03:00 +13°C° 0 mm 4 mps 754 mmHg 96%
    04:00 +14°C° 0 mm 5 mps 754 mmHg 93%
    05:00 +14°C° 0 mm 5 mps 755 mmHg 90%
    06:00 +15°C° 0 mm 5 mps 755 mmHg 90%
    07:00 +15°C° 0 mm 6 mps 755 mmHg 86%
    08:00 +16°C° 0 mm 6 mps 755 mmHg 83%
    09:00 +17°C° 0 mm 6 mps 756 mmHg 79%
    10:00 +17°C° 0 mm 6 mps 756 mmHg 74%
    11:00 +17°C° 0 mm 6 mps 756 mmHg 68%
    12:00 +18°C° 0 mm 7 mps 756 mmHg 63%
    13:00 +18°C° 0 mm 7 mps 757 mmHg 63%
    14:00 +17°C° 0 mm 7 mps 757 mmHg 64%
    15:00 +17°C° 0 mm 7 mps 757 mmHg 65%
    16:00 +16°C° 0 mm 7 mps 757 mmHg 68%
    17:00 +16°C° 0 mm 6 mps 757 mmHg 71%
    18:00 +15°C° 0 mm 6 mps 757 mmHg 74%
    19:00 +14°C° 0 mm 5 mps 758 mmHg 80%
    20:00 +12°C° 0 mm 5 mps 758 mmHg 86%
    21:00 +11°C° 0 mm 4 mps 758 mmHg 92%
    22:00 +11°C° 0 mm 4 mps 759 mmHg 93%
    23:00 +11°C° 0 mm 4 mps 759 mmHg 94%

    Tomorrow, 21 June, Friday

    Time Temperature Precipitation Wind Pressure Humidity
    00:00 +11°C° 0 mm 4 mps 759 mmHg 95%
    01:00 +11°C° 0 mm 4 mps 759 mmHg 95%
    02:00 +11°C° 0 mm 3 mps 759 mmHg 95%
    03:00 +11°C° 0 mm 3 mps 759 mmHg 95%
    04:00 +11°C° 0 mm 3 mps 760 mmHg 92%
    05:00 +12°C° 0 mm 3 mps 760 mmHg 90%
    06:00 +13°C° 0 mm 3 mps 760 mmHg 87%
    07:00 +14°C° 0 mm 4 mps 761 mmHg 80%
    08:00 +15°C° 0 mm 4 mps 761 mmHg 73%
    09:00 +17°C° 0 mm 4 mps 761 mmHg 66%
    10:00 +17°C° 0 mm 4 mps 761 mmHg 63%
    11:00 +18°C° 0 mm 4 mps 761 mmHg 60%
    12:00 +18°C° 0 mm 4 mps 761 mmHg 57%
    13:00 +18°C° 0 mm 4 mps 762 mmHg 57%
    14:00 +18°C° 0 mm 3 mps 762 mmHg 57%
    15:00 +18°C° 0 mm 3 mps 762 mmHg 58%
    16:00 +18°C° 0 mm 3 mps 762 mmHg 61%
    17:00 +17°C° 0 mm 2 mps 762 mmHg 65%
    18:00 +17°C° 0 mm 2 mps 762 mmHg 69%
    19:00 +15°C° 0 mm 2 mps 762 mmHg 75%
    20:00 +13°C° 0 mm 1 mps 762 mmHg 81%
    21:00 +11°C° 0 mm 1 mps 763 mmHg 87%
    22:00 +11°C° 0 mm 1 mps 763 mmHg 87%
    23:00 +11°C° 0 mm 1 mps 763 mmHg 87%

    Day after tomorrow, 22 June, Saturday

    Time Temperature Precipitation Wind Pressure Humidity
    00:00 +9°C° 0 mm 0 mps 763 mmHg 87%
    01:00 +10°C° 0 mm 1 mps 763 mmHg 88%
    02:00 +10°C° 0 mm 1 mps 762 mmHg 89%
    03:00 +9°C° 0 mm 1 mps 762 mmHg 89%
    04:00 +10°C° 0 mm 1 mps 762 mmHg 86%
    05:00 +12°C° 0 mm 1 mps 762 mmHg 83%
    06:00 +13°C° 0 mm 1 mps 763 mmHg 80%
    07:00 +14°C° 0 mm 2 mps 762 mmHg 75%
    08:00 +16°C° 0 mm 2 mps 762 mmHg 70%
    09:00 +18°C° 0 mm 3 mps 762 mmHg 65%
    10:00 +19°C° 0 mm 3 mps 762 mmHg 64%
    11:00 +20°C° 0 mm 3 mps 762 mmHg 63%
    12:00 +21°C° 0 mm 3 mps 762 mmHg 62%
    13:00 +21°C° 0 mm 4 mps 761 mmHg 64%
    14:00 +21°C° 0 mm 4 mps 761 mmHg 66%
    15:00 +21°C° 0 mm 5 mps 761 mmHg 68%
    16:00 +21°C° 0 mm 5 mps 761 mmHg 71%
    17:00 +20°C° 0 mm 5 mps 761 mmHg 74%
    18:00 +20°C° 0 mm 5 mps 760 mmHg 77%
    19:00 +18°C° 0 mm 4 mps 761 mmHg 82%
    20:00 +17°C° 0 mm 3 mps 761 mmHg 86%
    21:00 +14°C° 0 mm 3 mps 761 mmHg 91%
    22:00 +14°C° 0 mm 3 mps 761 mmHg 91%
    23:00 +16°C° 0 mm 3 mps 761 mmHg 90%

    23 June, Sunday

    Time Temperature Precipitation Wind Pressure Humidity
    00:00 +16°C° 0 mm 3 mps 760 mmHg 90%
    01:00 +14°C° 0 mm 3 mps 760 mmHg 90%
    02:00 +14°C° 0 mm 3 mps 760 mmHg 90%
    03:00 +14°C° 0 mm 3 mps 760 mmHg 90%
    04:00 +16°C° 0 mm 3 mps 760 mmHg 88%
    05:00 +17°C° 0 mm 3 mps 760 mmHg 86%
    06:00 +18°C° 0 mm 3 mps 760 mmHg 84%
    07:00 +20°C° 0 mm 3 mps 760 mmHg 80%
    08:00 +21°C° 0 mm 3 mps 760 mmHg 76%
    09:00 +24°C° 0 mm 3 mps 760 mmHg 72%
    10:00 +25°C° 0 mm 4 mps 760 mmHg 68%
    11:00 +26°C° 0 mm 4 mps 760 mmHg 65%
    12:00 +27°C° 0 mm 4 mps 759 mmHg 61%
    13:00 +27°C° 0 mm 5 mps 759 mmHg 61%
    14:00 +27°C° 0 mm 5 mps 759 mmHg 60%
    15:00 +28°C° 0 mm 5 mps 758 mmHg 60%
    16:00 +27°C° 0 mm 4 mps 758 mmHg 65%
    17:00 +27°C° 0 mm 4 mps 758 mmHg 69%
    18:00 +26°C° 0 mm 3 mps 758 mmHg 74%
    19:00 +25°C° 0 mm 3 mps 758 mmHg 76%
    20:00 +24°C° 0 mm 3 mps 759 mmHg 79%
    21:00 +22°C° 0 mm 3 mps 759 mmHg 82%
    22:00 +21°C° 0 mm 3 mps 759 mmHg 85%
    23:00 +20°C° 0 mm 3 mps 758 mmHg 88%

    24 June, Monday

    Time Temperature Precipitation Wind Pressure Humidity
    00:00 +20°C° 0 mm 3 mps 758 mmHg 91%
    01:00 +19°C° 0 mm 3 mps 758 mmHg 92%
    02:00 +19°C° 0 mm 3 mps 758 mmHg 93%
    03:00 +19°C° 0 mm 4 mps 758 mmHg 94%
    04:00 +19°C° 0 mm 3 mps 758 mmHg 92%
    05:00 +20°C° 0 mm 3 mps 758 mmHg 91%
    06:00 +21°C° 0 mm 3 mps 759 mmHg 89%
    07:00 +22°C° 0 mm 3 mps 759 mmHg 85%
    08:00 +24°C° 0 mm 3 mps 759 mmHg 81%
    09:00 +26°C° 0 mm 3 mps 759 mmHg 77%
    10:00 +27°C° 0 mm 2 mps 760 mmHg 73%
    11:00 +28°C° 0 mm 2 mps 760 mmHg 68%
    12:00 +29°C° 0 mm 1 mps 760 mmHg 64%
    13:00 +29°C° 0 mm 1 mps 760 mmHg 61%
    14:00 +30°C° 0 mm 1 mps 760 mmHg 59%
    15:00 +30°C° 0 mm 2 mps 760 mmHg 56%
    16:00 +29°C° 0 mm 2 mps 760 mmHg 63%
    17:00 +27°C° 0 mm 3 mps 760 mmHg 71%
    18:00 +26°C° 0 mm 3 mps 760 mmHg 78%
    19:00 +24°C° 0 mm 3 mps 760 mmHg 81%
    20:00 +22°C° 0 mm 3 mps 760 mmHg 84%
    21:00 +21°C° 0 mm 3 mps 761 mmHg 87%
    22:00 +20°C° 0 mm 3 mps 761 mmHg 88%
    23:00 +20°C° 0 mm 3 mps 760 mmHg 90%

    25 June, Tuesday

    Time Temperature Precipitation Wind Pressure Humidity
    00:00 +20°C° 0 mm 3 mps 760 mmHg 91%
    01:00 +20°C° 0 mm 3 mps 760 mmHg 91%
    02:00 +20°C° 0 mm 2 mps 760 mmHg 92%
    03:00 +20°C° 0 mm 2 mps 759 mmHg 92%
    04:00 +21°C° 0 mm 3 mps 759 mmHg 90%
    05:00 +22°C° 0 mm 3 mps 759 mmHg 87%
    06:00 +23°C° 0 mm 4 mps 759 mmHg 85%
    07:00 +25°C° 0 mm 4 mps 759 mmHg 81%
    08:00 +27°C° 0 mm 4 mps 759 mmHg 77%
    09:00 +28°C° 0 mm 5 mps 759 mmHg 74%
    10:00 +29°C° 0 mm 5 mps 759 mmHg 70%
    11:00 +32°C° 0 mm 5 mps 759 mmHg 67%
    12:00 +33°C° 0 mm 5 mps 759 mmHg 64%
    13:00 +33°C° 0 mm 5 mps 759 mmHg 63%
    14:00 +34°C° 0 mm 5 mps 759 mmHg 62%
    15:00 +34°C° 0 mm 5 mps 759 mmHg 62%
    16:00 +34°C° 0 mm 4 mps 759 mmHg 66%
    17:00 +33°C° 0 mm 3 mps 759 mmHg 70%
    18:00 +32°C° 0 mm 2 mps 760 mmHg 74%
    19:00 +30°C° 0 mm 2 mps 760 mmHg 78%
    20:00 +28°C° 0 mm 1 mps 760 mmHg 81%
    21:00 +26°C° 0 mm 1 mps 761 mmHg 85%
    22:00 +26°C° 0 mm 1 mps 761 mmHg 86%
    23:00 +25°C° 0 mm 1 mps 761 mmHg 87%
    Show more